This is the latest recevied weather packets stored in our database for station/object W4TBD-13. If no packets are shown the sender has not sent any weather packets the latest 10 day(s).
| Time | Temp. | Humidity | Pressure | Rain* | Wind** | Luminosity | Snow |
|---|---|---|---|---|---|---|---|
| 1777527904 | 15.56° C | 99% | 997.8 hPa | 0 mm | - | 0 W/m² | - |
| 1777526705 | 15° C | 99% | 998 hPa | 0 mm | - | 0 W/m² | - |
| 1777524904 | 15.56° C | 99% | 998 hPa | 0 mm | - | 0 W/m² | - |
| 1777524004 | 16.11° C | 98% | 998 hPa | 0 mm | - | 0 W/m² | - |
| 1777523704 | 16.11° C | 98% | 997.9 hPa | 0 mm | - | 0 W/m² | - |
| 1777522504 | 16.11° C | 98% | 998.1 hPa | 0 mm | - | 0 W/m² | - |
| 1777521904 | 16.67° C | 98% | 998.3 hPa | 0 mm | - | 0 W/m² | - |
| 1777521004 | 16.67° C | 97% | 998.3 hPa | 0 mm | - | 0 W/m² | - |
| 1777520105 | 16.67° C | 97% | 998.2 hPa | 0 mm | - | 0 W/m² | - |
| 1777516204 | 17.22° C | 96% | 998.3 hPa | 0 mm | - | 0 W/m² | - |
| 1777513205 | 17.78° C | 95% | 998.3 hPa | 0 mm | - | 0 W/m² | - |
| 1777512905 | 17.78° C | 94% | 998.4 hPa | 0 mm | - | 0 W/m² | - |
| 1777506605 | 18.33° C | 89% | 998 hPa | 0 mm | - | 0 W/m² | - |
| 1777505104 | 18.89° C | 89% | 998 hPa | 0 mm | - | 0 W/m² | - |
| 1777502405 | 18.89° C | 86% | 998.2 hPa | 0 mm | - | 0 W/m² | - |
| 1777500005 | 19.44° C | 84% | 998.3 hPa | 0 mm | - | 0 W/m² | - |
| 1777493705 | 20° C | 75% | 999.4 hPa | 0 mm | - | 0 W/m² | - |
| 1777493106 | 20° C | 74% | 999.5 hPa | 0 mm | - | 0 W/m² | - |
| 1777492805 | 20° C | 75% | 999.8 hPa | 0 mm | - | 0 W/m² | - |
| 1777491005 | 20° C | 71% | 1000 hPa | 0 mm | - | 0 W/m² | - |
| 1777490405 | 20° C | 71% | 1000.3 hPa | 0 mm | - | 0 W/m² | - |
| 1777489805 | 20° C | 72% | 1000.6 hPa | 0 mm | - | 0 W/m² | - |
| 1777487704 | 20° C | 73% | 1001.3 hPa | 0 mm | - | 0 W/m² | - |
| 1777487104 | 20° C | 73% | 1001.3 hPa | 0 mm | - | 0 W/m² | - |
| 1777485905 | 19.44° C | 75% | 1001.6 hPa | 0 mm | - | 0 W/m² | - |
* Rain latest hour (hover to see other rain measurements)
** Current wind speed in m/s (hover to see current wind gust speed)